Location: Brad
(46.1333°N, 22.7833°E)
Time: 12:07:37
(UTC+00:00)

Genesis I - Pass Details

Date: 03 February 2023
Orbit: 466 x 516 km, 64.5° (Epoch: 21 March)

Event Time Altitude Azimuth Distance (km) Brightness Sun altitude
Rises 17:17:13 0° 210° (SSW) 2,635 7.3 -17.7°
Reaches altitude 10° 17:19:23 10° 208° (SSW) 1,755 6.3 -18.1°
Maximum altitude 17:23:19 72° 124° (SE) 555 3.1 -18.7°
Enters shadow 17:24:21 47° 55° (NE) 708 3.5 -18.9°
